Location: Bergnershof
(48.9468°N, 10.9431°E)
Time: 21:49:41
(UTC+00:00)

Sich 1 - Pass Details

Date: 03 March 2021
Orbit: 593 x 626 km, 82.5° (Epoch: 13 April)

Event Time Altitude Azimuth Distance (km) Brightness Sun altitude
Rises 17:28:07 0° 189° (S) 2,875 6.7 -4.9°
Reaches altitude 10° 17:30:19 10° 190° (S) 1,979 5.9 -5.3°
Maximum altitude 17:34:43 84° 280° (W) 632 3.2 -6.0°
Drops below altitude 10° 17:39:11 10° 9° (N) 2,009 5.6 -6.7°
Sets 17:41:26 0° 10° (N) 2,923 6.4 -7.1°
